sat.trackr.live / text

‹ back to catalog

ONEWEB-0234

NORAD 48783 · 2021-045S

PAYLOAD ACTIVE UNKNOWN

§ Identity

Operator
Country
UK
Launch date
2021-05-28
Launch site
VOSTO
Launch vehicle
Mass (kg)
RCS (m²)

Purposes: comms

External: N2YO · Heavens-Above · Gunter

§ Orbital elements

Epoch: 2026-05-25T00:57:36.611712Z

Period
109.46 min
Inclination
87.8999°
Eccentricity
0.0002023
Mean motion
13.15548312 rev/d
Perigee alt
1,200.2 km
Apogee alt
1,203.3 km
Semi-major
7,579.9 km
B*
-1.6383e-4
RAAN
263.7894°
Arg perigee
124.6617°
Mean anomaly
235.4705°
Rev number
24,143

§ Raw data

ONEWEB-02341 48783U 21045S   26145.04000708 -.00000049  00000+0 -16383-3 0  99972 48783  87.8999 263.7894 0002023 124.6617 235.4705 13.15548312241438

JSON: /api/v1/satellites/48783 · /tle

For live sub-satellite position, see the globe view (requires WebGL).

§ Visibility from observer

Set your observer location to see the next 7 days of passes ≥ 10°. The values pass through the URL so the page stays shareable.

No JS? Fill the form by hand. The geolocation button needs JavaScript.